This is the latest recevied weather packets stored in our database for station/object IK6ZNK-3. If no packets are shown the sender has not sent any weather packets the latest 1 day(s).
| Time | Temp. | Humidity | Pressure | Rain* | Wind** | Luminosity | Snow |
|---|---|---|---|---|---|---|---|
| 1777969211 | 17.78° C | 70% | 1007.6 hPa | 0 mm | 0 m/s | - | - |
| 1777968611 | 16.11° C | 69% | 1007.7 hPa | 0 mm | 0.45 m/s, 163° | - | - |
| 1777968010 | 16.11° C | 78% | 1007.7 hPa | 0 mm | 0.45 m/s, 263° | - | - |
| 1777967409 | 16.11° C | 74% | 1007.6 hPa | 0 mm | 0.45 m/s, 67° | - | - |
| 1777966809 | 16.11° C | 73% | 1007.6 hPa | 0 mm | 0 m/s | - | - |
| 1777966207 | 17.22° C | 74% | 1007.5 hPa | 0 mm | 0 m/s | - | - |
| 1777965608 | 17.22° C | 68% | 1007.7 hPa | 0 mm | 0 m/s | - | - |
| 1777965007 | 16.67° C | 63% | 1007.4 hPa | 0 mm | 0 m/s | - | - |
| 1777964408 | 16.67° C | 61% | 1007.4 hPa | 0 mm | 0.45 m/s, 75° | - | - |
| 1777963806 | 17.22° C | 58% | 1007.3 hPa | 0 mm | 0.45 m/s, 1° | - | - |
| 1777963206 | 16.67° C | 55% | 1007 hPa | 0 mm | 0 m/s | - | - |
| 1777962607 | 16.67° C | 62% | 1006.9 hPa | 0 mm | 0 m/s | - | - |
| 1777962006 | 16.67° C | 63% | 1007 hPa | 0 mm | 0 m/s | - | - |
| 1777961406 | 16.11° C | 56% | 1006.9 hPa | 0 mm | 0.45 m/s, 113° | - | - |
| 1777960806 | 15.56° C | 57% | 1006.9 hPa | 0 mm | 0 m/s | - | - |
| 1777960206 | 16.11° C | 57% | 1006.8 hPa | 0 mm | 0 m/s | - | - |
| 1777959606 | 16.11° C | 56% | 1006.8 hPa | 0 mm | 0 m/s | - | - |
| 1777959007 | 16.11° C | 54% | 1006.5 hPa | 0 mm | 0.45 m/s, 1° | - | - |
| 1777958406 | 16.11° C | 55% | 1006.5 hPa | 0 mm | 0 m/s | - | - |
| 1777957806 | 16.67° C | 46% | 1006.5 hPa | 0 mm | 0.89 m/s, 171° | - | - |
| 1777957206 | 16.67° C | 44% | 1006.5 hPa | 0 mm | 2.24 m/s, 168° | - | - |
* Rain latest hour (hover to see other rain measurements)
** Current wind speed in m/s (hover to see current wind gust speed)